Location: Jaite
(41.2884°N, 81.5737°W)
Time: 06:07:21
(UTC+00:00)

Cosmos 2251 Rocket - Pass Details

Date: 15 November 2025
Orbit: 760 x 788 km, 74.0° (Epoch: 04 December)

Event Time Altitude Azimuth Distance (km) Brightness Sun altitude
Exits shadow 09:38:20 46° 21° (NNE) 1,051 4.2 -29.4°
Maximum altitude 09:39:31 57° 67° (ENE) 929 4.1 -29.1°
Drops below altitude 10° 09:44:46 10° 146° (SE) 2,342 6.4 -28.2°
Sets 09:47:11 0° 151° (SSE) 3,264 7.2 -27.7°
